Starlink 32837

operational
NORAD ID: 62812 Int'l Des: 2025-018 Owner: SPXS Country: US Constellation: starlink
LEOCIRCULAR

About Starlink 32837

Description loading...

Live Position

Loading 3D Globe...

Upcoming Passes

Altitude History

Altitude vs Time

uPlot chart will show altitude changes over time

Two-Line Element Set

1 62812U 25018G 25350.36822135 .00019535 00000-0 66962-3 0 9995
2 62812 53.1614 336.4787 0001553 67.8259 292.2907 15.30215865 50428
Epoch: Dec 16, 2025 • Age: 27 hours

Current Status

Altitude 482.1 km
Velocity 7.62 km/s
Sub-Earth Point -23.77°S, 55.54°E
Launch Date Jan 24, 2025
Age 0.8 years
Type internet

Technical Details

Classification Payload
Mass 730.00 kg
Dry Mass 700.00 kg
Total Mass 730.00 kg
Length 0.30 m
Diameter 4.10 m
Span 29.00 m
Shape Box + pan
Manufacturer SPXS
Bus Type Starlink V2M
Phase Status In Orbit
Owner/State SPXS/US

Large Constellations

Loading constellations...